Overview Statistics Trail Chart Weather Telemetry Raw packets
 

This is the latest recevied weather packets stored in our database for station/object AB1AU. If no packets are shown the sender has not sent any weather packets the latest 10 day(s).

<< 11 12 13 14 15 16 17 >>
Time Temp. Humidity Pressure Rain* Wind** Luminosity Snow
1788541540 25.56° C 62% 1008.9 hPa 0 mm - 52 W/m² -
1788541236 25.56° C 61% 1008.8 hPa 0 mm - 88 W/m² -
1788540935 25.56° C 61% 1009 hPa 0 mm - 58 W/m² -
1788540634 25.56° C 64% 1009.1 hPa 0 mm - 50 W/m² -
1788540329 25° C 63% 1009.1 hPa 0 mm - 50 W/m² -
1788540026 24.44° C 64% 1009.2 hPa 0 mm - 36 W/m² -
1788539725 24.44° C 65% 1009.3 hPa 0 mm - 44 W/m² -
1788539420 24.44° C 64% 1009.2 hPa 0 mm - 33 W/m² -
1788539114 24.44° C 65% 1009.3 hPa 0 mm - 52 W/m² -
1788538811 24.44° C 65% 1009.3 hPa 0 mm - 29 W/m² -
1788538505 24.44° C 67% 1009.4 hPa 0 mm - 33 W/m² -
1788538201 24.44° C 67% 1009.5 hPa 0 mm - 35 W/m² -
1788537901 23.89° C 69% 1009.5 hPa 0 mm - 32 W/m² -
1788537597 23.89° C 69% 1009.7 hPa 0 mm - 47 W/m² -
1788537296 23.89° C 70% 1009.6 hPa 0 mm - 34 W/m² -
1788536995 23.33° C 70% 1009.8 hPa 0 mm - 31 W/m² -
1788536689 23.33° C 71% 1009.8 hPa 0 mm - 32 W/m² -
1788536385 23.33° C 69% 1009.8 hPa 0 mm - 58 W/m² -
1788536080 23.33° C 71% 1009.9 hPa 0 mm - 66 W/m² -
1788535776 23.33° C 73% 1010 hPa 0 mm - 53 W/m² -
1788535472 22.78° C 73% 1010 hPa 0 mm - 172 W/m² -
1788535171 22.78° C 74% 1010.1 hPa 0 mm - 33 W/m² -
1788534866 22.78° C 75% 1010.2 hPa 0 mm - 27 W/m² -
1788534561 22.78° C 75% 1010.2 hPa 0 mm - 97 W/m² -
1788534256 22.22° C 76% 1010.2 hPa 0 mm - 40 W/m² -

* Rain latest hour (hover to see other rain measurements)
** Current wind speed in m/s (hover to see current wind gust speed)